User: anonymous   Login
Location: Babice
(50.3480°N, 22.9363°E)
Time: 14:34:16
(UTC+00:00)
Language:

Cosmos 1536 - Orbit

View from above orbital plane
View from above orbital plane
View from above satellite
View from above satellite

Ground track
Ground track

The orbit data is extracted from the following two-line orbital elements,

1 14699U 84013A   21127.20573675  .00000534  00000-0  34813-4 0  9998
2 14699  82.5280  33.9704 0010752 248.1484 111.8600 15.05793768 26734
Epoch (UTC): 07 May 2021 04:56:15
Eccentricity: 0.0010752
inclination: 82.5280°
perigee height: 541 km
apogee height: 556 km
right ascension of ascending node: 33.9704°
argument of perigee: 248.1484°
revolutions per day: 15.05793768
mean anomaly at epoch: 111.8600°
orbit number at epoch: 2673

The dashed part of the orbit path shows where the satellite is in the earth's shadow,  

DLR